Regional Weather Roundup
Issued by NWS

Home | Current Version | Previous Version | Graphics & Text | Print | Product List | Glossary On
Versions: 1 2 3 4 5 6 7 8 9 10 11 12 13 14 15 16 17 18 19 20 21 22 23 24 25 26 27 28 29 30 31 32 33 34 35 36 37 38 39 40 41 42 43 44 45 46 47 48 49 50
000
ASUS43 KMKX 221200
RWRWI

WISCONSIN REGIONAL WEATHER ROUNDUP
NATIONAL WEATHER SERVICE MILWAUKEE/SULLIVAN WI
700 AM CDT MON SEP 22 2014

NOTE: "FAIR" INDICATES FEW OR NO CLOUDS BELOW 12,000 FEET WITH NO
SIGNIFICANT WEATHER AND/OR OBSTRUCTIONS TO VISIBILITY.

WIZ001-002-006>008-014>016-023>028-221300-
NORTHWEST WISCONSIN

CITY           SKY/WX    TMP DP  RH WIND       PRES   REMARKS
SUPERIOR ARPT  CLEAR     43  43  99 SW7       30.20S
ASHLAND        CLEAR     46  44  93 SW7       30.19S
6HR MIN TEMP:  41; 6HR MAX TEMP:  48;

HAYWARD        CLOUDY    37  37 100 CALM      30.22S FOG
6HR MIN TEMP:  37; 6HR MAX TEMP:  40;

SIREN          CLEAR     39  38  95 CALM      30.23R
RICE LAKE      CLEAR     41  40  97 CALM      30.23F
LADYSMITH      CLEAR     38  37  97 CALM      30.23S
EAU CLAIRE     NOT AVBL
MENOMONIE      SUNNY     43  42  95 CALM      30.23F
NEW RICHMOND   FOG       42  42 100 CALM      30.24S VSB 3/4
OSCEOLA        CLOUDY    41  41 100 CALM      30.26R FOG
$$

WIZ003>005-009-010-017-018-221300-
NORTH CENTRAL WISCONSIN

CITY           SKY/WX    TMP DP  RH WIND       PRES   REMARKS
WOODRUFF       MOCLDY    42  40  93 CALM      30.19S
RHINELANDER    PTCLDY    36  35  96 W6        30.21R WCI  31
6HR MIN TEMP:  33; 6HR MAX TEMP:  42;

EAGLE RIVER    CLOUDY    33  33 100 CALM      30.18S
LAND O LAKES   CLOUDY    36  36 100 CALM      30.19R
PHILLIPS       CLEAR     35  35  99 CALM      30.21R
TOMAHAWK       CLEAR     32  32  99 CALM      30.21S
MEDFORD        CLEAR     38  37  99 CALM      30.22S FOG
MERRILL        CLEAR     33  33  99 CALM      30.22R
$$

WIZ029-030-035-036-043>047-221300-
CENTRAL WISCONSIN

CITY           SKY/WX    TMP DP  RH WIND       PRES   REMARKS
WAUSAU         CLEAR     40  38  93 CALM      30.22R
6HR MIN TEMP:  40; 6HR MAX TEMP:  43;

MOSINEE        CLEAR     39  39 100 W6        30.24R WCI  35
MARSHFIELD     CLEAR     42  39  89 W6        30.23R
6HR MIN TEMP:  39; 6HR MAX TEMP:  44;

STEVENS POINT  CLEAR     33  33  97 CALM      30.24R
WAUPACA        CLEAR     40  39  95 CALM      30.22F
WAUTOMA        NOT AVBL
WISC RAPIDS    CLEAR     39  38  96 CALM      30.25R
6HR MIN TEMP:  38; 6HR MAX TEMP:  41;

CAMP DOUGLAS   NOT AVBL
$$

WIZ011>013-019>022-031-037>040-048>050-221300-
NORTHEAST WISCONSIN

CITY           SKY/WX    TMP DP  RH WIND       PRES   REMARKS
ANTIGO         CLEAR     33  33 100 CALM      30.21S
STURGEON BAY   CLEAR     41  37  87 SW5       30.20S
6HR MIN TEMP:  39; 6HR MAX TEMP:  46;

GREEN BAY      CLEAR     38  37  97 CALM      30.22R
6HR MIN TEMP:  37; 6HR MAX TEMP:  41;

MANITOWOC      NOT AVBL
APPLETON       PTCLDY    39  37  93 W9        30.22S WCI  33
CLINTONVILLE   CLEAR     36  34  93 CALM      30.22R
OSHKOSH        CLEAR     43  39  86 W6        30.22S
6HR MIN TEMP:  39; 6HR MAX TEMP:  44;

$$

WIZ032>034-041-042-053>061-221300-
SOUTHWEST WISCONSIN

CITY           SKY/WX    TMP DP  RH WIND       PRES   REMARKS
LA CROSSE      FOG       49  47  93 S5        30.26R VSB 1/2
6HR MIN TEMP:  47; 6HR MAX TEMP:  50;

SPARTA         CLEAR     33  33  99 CALM      30.27R
VIROQUA        FAIR      44  44 100 SW3       30.25R
BOSCOBEL       FOG       45  44  97 SW5       30.29R VSB 1/4
6HR MIN TEMP:  44; 6HR MAX TEMP:  47;

PRAIRIE DU CHI DRZL/FOG  47  46  95 CALM      30.28R VSB 1/4
PLATTEVILLE    FAIR      42  40  95 CALM      30.28R
$$

WIZ056-057-062-063-064-067-068-221300-
SOUTH CENTRAL WISCONSIN

CITY           SKY/WX    TMP DP  RH WIND       PRES   REMARKS
BARABOO/DELLS  CLEAR     38  37  94 CALM      30.25R
LONE ROCK      HAZE      44  39  82 CALM      30.27R VSB 1/4
WATERTOWN      CLEAR     35  35 100 CALM      30.25R
MADISON        CLEAR     39  37  92 CALM      30.27R
6HR MIN TEMP:  38; 6HR MAX TEMP:  46;

MIDDLETON      FAIR      38  38 100 CALM      30.26R
MONROE         CLEAR     43  41  93 W8        30.25S
JANESVILLE     CLEAR     39  39 100 CALM      30.26R
$$

WIZ051-052-058>065-066-070>072-221300-
SOUTHEAST WISCONSIN

CITY           SKY/WX    TMP DP  RH WIND       PRES   REMARKS
MILWAUKEE      CLEAR     42  37  82 CALM      30.25R
6HR MIN TEMP:  42; 6HR MAX TEMP:  48;

WAUKESHA       CLEAR     37  36  93 CALM      30.26R
MILWAUKEE/TIMM CLEAR     39  36  87 CALM      30.25R
RACINE         CLEAR     42  38  85 W7        30.27R
6HR MIN TEMP:  42; 6HR MAX TEMP:  48;

BURLINGTON     FOG       33  33 100 CALM      30.25R VSB 3/4
KENOSHA        CLEAR     42  39  89 NW5       30.26R
6HR MIN TEMP:  42; 6HR MAX TEMP:  47;

FOND DU LAC    CLEAR     39  37  92 SW5       30.24R
6HR MIN TEMP:  38; 6HR MAX TEMP:  44;

SHEBOYGAN      CLEAR     37  35  92 SW3       30.23R
6HR MIN TEMP:  34; 6HR MAX TEMP:  43;

WEST BEND      CLEAR     36  34  93 CALM      30.24R
JUNEAU         CLEAR     37  37  99 SW3       30.26R FOG
$$

LSZ147-162-221300-
LAKE SUPERIOR

STATION/POSITION TIME  TEMP    WIND        PRES    WAVE
                       AIR SEA DIR/SP/G            HT/PER
                 (UTC) (F)     (DEG/KT/KT) (MB)    (FT/S)
W MID LAKE BUOY  1050   49 46  260/ 10/ 12 1020.5R   1/ 3
DEVILS ISLAND    1100   52     240/ 15/ 17 1021.4F
PORT WING        1100   48     190/  6/  8 1022.0S
SAXON HARBOR     1100   50     200/  9/ 10 1021.7S
$$

LMZ867-665-643>646-221300-
LAKE MICHIGAN

STATION/POSITION TIME  TEMP    WIND        PRES    WAVE
                       AIR SEA DIR/SP/G            HT/PER
                 (UTC) (F)     (DEG/KT/KT) (MB)    (FT/S)
N MID LAKE BUOY  1050   49 57  310/  6/ 10 1021.6R   2/ 4
NORTHPORT PIER   1100   43     240/  3/  5 1022.0R
KEWAUNEE LAKESHO 1100   40     300/  3/  4 1021.8R
SHEBOYGAN LAKESH 1100   44 51  270/  6/  6 1023.8R
PORT WASHINGTON  1100   43     290/  5/  6 1024.4
ATWATER BUOY     1100   48     290/ 10/ 12 1024.7R
MILWAUKEE LAKESH 1100   46     290/  5/  7   N/A
S MID LAKE BUOY  1050   53 61  340/ 12/ 14 1022.9R   6/ 8
KENOSHA   LAKESH 1100   45     300/  8/ 11 1023.4R
$$

TC  - TEMPERATURE IN CELSIUS
VSB - VISIBILITY IN STATUTE MILES
WCI - WIND CHILL INDEX
HX  - HEAT INDEX



USA.gov is the U.S. government's official web portal to all federal, state and local government web resources and services.